Location: Gorze? G�rny
(49.8500°N, 19.5000°E)
Time: 05:29:11
(UTC+00:00)

Cosmos 967 Rocket - Pass Details

Date: 13 May 2021
Orbit: 952 x 985 km, 65.8° (Epoch: 20 June)

Event Time Altitude Azimuth Distance (km) Brightness Sun altitude
Exits shadow 20:48:14 16° 196° (SSW) 2,256 6.0 -17.3°
Maximum altitude 20:53:10 60° 121° (ESE) 1,087 4.5 -17.7°
Drops below altitude 10° 20:59:20 10° 43° (NE) 2,696 7.1 -18.1°
Sets 21:01:56 0° 40° (NE) 3,649 7.9 -18.3°
